EW2690 Weather Reports


Display with metric or nautical units.
time (UTC)temp
F
wind
direction
speed
MPH
gust
MPH
rain 1hr
in
rain 24hr
in
rain mn
in
humidity
%
barometer
mb
20260902163044 89 224 2.0 9.0 0.00 0.05 0.05 75 1026.4
20260902160315 87 355 4.0 9.0 0.00 0.05 0.05 77 1026.5
20260902160011 87 275 4.0 8.0 0.00 0.05 0.05 75 1026.5
20260902153028 87 301 4.0 5.0 0.00 0.05 0.05 80 1026.8
20260902150350 85 298 1.0 5.0 0.00 0.05 0.05 83 1026.8
20260902150041 85 283 2.0 7.0 0.00 0.05 0.05 83 1026.8
20260902143102 83 222 2.0 4.0 0.00 0.05 0.05 85 1026.5
20260902140335 82 323 0.0 5.0 0.00 0.05 0.05 90 1026.2
20260902140033 82 323 1.0 5.0 0.00 0.05 0.05 90 1026.3
20260902133023 80 307 2.0 6.0 0.00 0.05 0.05 92 1026.2
20260902130405 78 111 0.0 2.0 0.01 0.05 0.05 98 1026.3
20260902130036 78 111 1.0 2.0 0.02 0.05 0.05 98 1026.2
20260902123016 75 181 2.0 4.0 0.05 0.05 0.05 96 1026.1
20260902120328 77 102 2.0 4.0 0.04 0.04 0.04 94 1026.6
20260902120032 77 59 3.0 4.0 0.02 0.02 0.02 93 1026.7
20260902113028 77 242 0.0 7.0 0.00 0.00 0.00 92 1026.0
20260902110345 77 208 4.0 8.0 0.00 0.00 0.00 92 1024.6
20260902110016 76 215 4.0 8.0 0.00 0.00 0.00 92 1024.7
20260902103120 76 198 2.0 9.0 0.00 0.00 0.00 91 1024.9
20260902100359 75 250 2.0 6.0 0.00 0.00 0.00 90 1025.1
20260902100009 75 193 2.0 6.0 0.00 0.00 0.00 90 1025.1
20260902093053 74 294 0.0 4.0 0.00 0.00 0.00 92 1025.2
20260902090353 74 209 1.0 3.0 0.00 0.00 0.00 92 1025.3
20260902090024 74 196 1.0 3.0 0.00 0.00 0.00 92 1025.3
20260902083025 74 170 1.0 2.0 0.00 0.00 0.00 93 1025.6
20260902080339 73 178 1.0 3.0 0.00 0.00 0.00 93 1025.4
20260902080014 73 178 0.0 3.0 0.00 0.00 0.00 93 1025.4
20260902073035 74 178 1.0 3.0 0.00 0.04 0.00 93 1025.7
20260902070332 74 178 0.0 3.0 0.00 0.04 0.00 93 1025.6
20260902070027 74 178 1.0 3.0 0.00 0.04 0.00 93 1025.6
20260902063053 73 178 0.0 3.0 0.00 0.05 0.00 94 1025.9
20260902060328 73 209 0.0 3.0 0.00 0.05 0.00 94 1026.0
20260902060026 73 209 1.0 3.0 0.00 0.05 0.00 94 1026.0
20260902053025 74 196 0.0 2.0 0.00 0.05 0.00 92 1025.9
20260902050336 75 196 0.0 3.0 0.00 0.05 0.00 91 1025.6
20260902050058 75 196 0.0 3.0 0.00 0.05 0.00 91 1025.6
20260902043012 75 251 0.0 2.0 0.00 0.05 0.00 89 1025.9
20260902040413 76 325 1.0 2.0 0.00 0.05 0.00 86 1025.7
20260902040036 76 325 0.0 2.0 0.00 0.05 0.00 86 1025.7
20260902033012 77 305 0.0 3.0 0.00 0.05 0.05 84 1025.7
20260902030311 77 248 2.0 6.0 0.00 0.05 0.05 82 1025.6
20260902030032 77 282 3.0 6.0 0.00 0.05 0.05 82 1025.6
20260902023012 78 311 1.0 7.0 0.00 0.05 0.05 80 1025.6
20260902020329 79 313 0.0 6.0 0.00 0.05 0.05 77 1025.3
20260902020041 79 313 1.0 6.0 0.00 0.05 0.05 77 1025.3
20260902013123 79 325 2.0 10.0 0.00 0.06 0.05 78 1025.2
20260902010317 80 84 1.0 4.0 0.00 0.06 0.05 77 1024.7
20260902010019 80 249 2.0 4.0 0.00 0.06 0.05 76 1024.6
20260902003054 81 231 2.0 9.0 0.00 0.06 0.05 76 1024.4
20260902000355 82 209 2.0 15.0 0.00 0.06 0.05 78 1024.4
20260902000117 82 281 4.0 15.0 0.00 0.06 0.05 78 1024.4
20260901233032 83 346 3.0 12.0 0.00 0.06 0.05 80 1024.8
20260901230343 84 265 5.0 14.0 0.00 0.06 0.05 79 1025.0
20260901230018 84 292 3.0 13.0 0.00 0.06 0.05 80 1025.0
20260901223045 84 270 2.0 6.0 0.00 0.06 0.05 81 1024.9
20260901220324 84 306 2.0 7.0 0.00 0.06 0.05 81 1025.1
20260901220018 84 303 2.0 8.0 0.00 0.06 0.05 80 1025.1
20260901213018 83 321 2.0 7.0 0.00 0.06 0.05 80 1025.1
20260901210422 84 261 4.0 10.0 0.00 0.06 0.05 80 1025.2
20260901210340 84 261 4.0 10.0 0.00 0.06 0.05 80 1025.2
20260901210016 84 254 2.0 8.0 0.00 0.06 0.05 80 1025.3
20260901203032 86 284 3.0 9.0 0.00 0.06 0.05 79 1025.1
20260901200331 86 309 5.0 8.0 0.00 0.06 0.05 76 1024.9
20260901200027 86 286 2.0 5.0 0.00 0.06 0.05 77 1024.9
20260901193104 88 296 3.0 8.0 0.00 0.06 0.05 74 1024.8
20260901190338 88 278 4.0 6.0 0.00 0.06 0.05 72 1025.0
20260901190040 88 310 4.0 6.0 0.00 0.06 0.05 72 1025.0
20260901183101 87 288 3.0 9.0 0.00 0.06 0.05 74 1025.1
20260901180313 87 325 4.0 9.0 0.00 0.06 0.05 74 1025.5
20260901180031 87 325 4.0 8.0 0.00 0.06 0.05 75 1025.5
20260901173045 86 333 3.0 10.0 0.00 0.06 0.05 76 1025.6
20260901170319 85 316 3.0 10.0 0.00 0.06 0.05 79 1026.0
20260901170017 84 261 2.0 12.0 0.00 0.06 0.05 78 1026.0